User: anonymous   Login
Location: Unspecified
(0.0000°N, 0.0000°E)
Time: 14:51:35
(UTC+00:00)
Language:

IBEX - Orbit

View from above orbital plane
View from above orbital plane
View from above satellite
View from above satellite

Ground track
Ground track

The orbit data is extracted from the following two-line orbital elements,

1 33401U 08051A   16184.39102019 -.00001311  00000-0  00000+0 0  9996
2 33401  42.6943  23.1919 5038901 164.4276 340.0236  0.11330860  3252
Epoch (UTC): 02 July 2016 09:23:04
Eccentricity: 0.5038901
inclination: 42.6943°
perigee height: 83117 km
apogee height: 264914 km
right ascension of ascending node: 23.1919°
argument of perigee: 164.4276°
revolutions per day: 0.11330860
mean anomaly at epoch: 340.0236°
orbit number at epoch: 325

The dashed part of the orbit path shows where the satellite is in the earth's shadow,  

DLR